sat.trackr.live / text

‹ back to catalog

STARLINK-34852

NORAD 66135 · 2025-237X

PAYLOAD ACTIVE UNKNOWN

§ Identity

Operator
Country
US
Launch date
2025-10-22
Launch site
AFWTR
Launch vehicle
Mass (kg)
RCS (m²)

Purposes: comms

External: N2YO · Heavens-Above · Gunter

§ Orbital elements

Epoch: 2026-09-20T13:20:40.749216Z

Period
93.85 min
Inclination
53.1567°
Eccentricity
0.0001283
Mean motion
15.34408860 rev/d
Perigee alt
461.8 km
Apogee alt
463.6 km
Semi-major
6,840.8 km
B*
4.3745e-4
RAAN
213.1979°
Arg perigee
104.1129°
Mean anomaly
256.0017°
Rev number
5,242

§ Raw data

STARLINK-348521 66135U 25237X   26263.55602719  .00014436  00000+0  43745-3 0  99972 66135  53.1567 213.1979 0001283 104.1129 256.0017 15.34408860 52427

JSON: /api/v1/satellites/66135 · /tle

For live sub-satellite position, see the globe view (requires WebGL).

§ Visibility from observer

Set your observer location to see the next 7 days of passes ≥ 10°. The values pass through the URL so the page stays shareable.

No JS? Fill the form by hand. The geolocation button needs JavaScript.